nws-alerts: Checking more than four warning/county codes can delay the loading of your pages. You should use a cron job to get the data.
EllijayWeather Historical Data
Daily Summary for January 24, 2020 Units:  English    Metric   Both
Daily Weekly Monthly Yearly
  High: Low: Average:
Temperature: 48.0 °F 40.0 °F 43.2 °F
Dew Point: 47.0 °F 38.0 °F 42.2 °F
Humidity: 100% 94% 96%
Wind Speed: 7mph 0mph 1.4mph
Wind Gust: 12mph - -
Wind- - SE
Pressure: 30.1 in 30.0 in -
Precipitation: 0.330 in    
 
 
Tabular Data for January 24, 2020
Time Temperature Dew Point Pressure Wind Wind Speed Wind Gust Humidity Rainfall Rate (Hourly)
00:04 40.0 °F 38.0 °F 30.1 in ENE 3 mph 5 mph 94% 0.080 in
00:09 40.0 °F 38.0 °F 30.1 in East 3 mph 7 mph 95% 0.090 in
00:14 40.0 °F 39.0 °F 30.1 in SE 7 mph 7 mph 95% 0.090 in
00:19 40.0 °F 39.0 °F 30.1 in SE 6 mph 8 mph 95% 0.090 in
00:24 40.0 °F 39.0 °F 30.1 in ESE 5 mph 8 mph 95% 0.090 in
00:29 40.0 °F 39.0 °F 30.1 in SE 2 mph 7 mph 95% 0.090 in
00:34 40.0 °F 39.0 °F 30.1 in ESE 7 mph 8 mph 95% 0.090 in
00:39 40.0 °F 39.0 °F 30.1 in SE 4 mph 6 mph 95% 0.080 in
00:44 40.0 °F 38.0 °F 30.1 in ESE 5 mph 7 mph 94% 0.070 in
00:49 40.0 °F 38.0 °F 30.1 in ESE 6 mph 8 mph 94% 0.070 in
00:54 40.0 °F 38.0 °F 30.1 in SE 4 mph 6 mph 94% 0.070 in
00:59 40.0 °F 38.0 °F 30.1 in ESE 6 mph 6 mph 94% 0.060 in
01:04 40.0 °F 38.0 °F 30.1 in ESE 5 mph 7 mph 94% 0.050 in
01:09 40.0 °F 39.0 °F 30.1 in SE 5 mph 9 mph 94% 0.050 in
01:14 40.0 °F 40.0 °F 30.1 in SE 4 mph 12 mph 99% 0.050 in
01:19 40.0 °F 40.0 °F 30.1 in ESE 6 mph 12 mph 100% 0.040 in
01:24 40.0 °F 40.0 °F 30.1 in ESE 5 mph 6 mph 100% 0.040 in
01:29 40.0 °F 39.0 °F 30.1 in East 6 mph 7 mph 94% 0.030 in
01:34 40.0 °F 39.0 °F 30.1 in East 6 mph 7 mph 94% 0.030 in
01:39 40.0 °F 39.0 °F 30.1 in ESE 6 mph 10 mph 94% 0.020 in
01:44 41.0 °F 39.0 °F 30.1 in ESE 7 mph 10 mph 94% 0.020 in
01:49 41.0 °F 39.0 °F 30.1 in ESE 6 mph 7 mph 94% 0.020 in
01:54 41.0 °F 39.0 °F 30.1 in ESE 5 mph 6 mph 94% 0.010 in
01:59 41.0 °F 39.0 °F 30.1 in East 5 mph 7 mph 94% 0.010 in
02:04 40.0 °F 39.0 °F 30.1 in SE 4 mph 7 mph 95% 0.010 in
02:09 41.0 °F 39.0 °F 30.1 in ESE 4 mph 4 mph 95% 0.010 in
02:14 41.0 °F 39.0 °F 30.1 in ESE 2 mph 5 mph 95% 0.000 in
02:19 41.0 °F 40.0 °F 30.1 in ESE 4 mph 5 mph 95% 0.000 in
02:24 41.0 °F 40.0 °F 30.1 in ESE 5 mph 7 mph 95% 0.000 in
02:29 41.0 °F 40.0 °F 30.1 in ESE 2 mph 7 mph 95% 0.000 in
02:34 41.0 °F 40.0 °F 30.1 in Calm     95% 0.010 in
02:39 41.0 °F 40.0 °F 30.1 in ESE 4 mph 5 mph 95% 0.010 in
02:44 41.0 °F 40.0 °F 30.1 in ESE 2 mph 6 mph 95% 0.020 in
02:49 41.0 °F 40.0 °F 30.1 in ESE 5 mph 6 mph 95% 0.020 in
02:54 41.0 °F 40.0 °F 30.1 in ESE 7 mph 9 mph 95% 0.030 in
02:59 42.0 °F 40.0 °F 30.1 in SE 5 mph 9 mph 95% 0.030 in
03:04 42.0 °F 40.0 °F 30.1 in SSE 5 mph 6 mph 95% 0.030 in
03:09 42.0 °F 40.0 °F 30.1 in ESE 5 mph 6 mph 95% 0.030 in
03:14 42.0 °F 40.0 °F 30.0 in ESE 6 mph 7 mph 95% 0.030 in
03:19 42.0 °F 40.0 °F 30.0 in ESE 6 mph 6 mph 95% 0.030 in
03:24 42.0 °F 40.0 °F 30.0 in ESE 5 mph 7 mph 95% 0.030 in
03:29 42.0 °F 40.0 °F 30.0 in SSE 5 mph 5 mph 95% 0.030 in
03:34 42.0 °F 40.0 °F 30.0 in SE 7 mph 7 mph 95% 0.030 in
03:39 42.0 °F 40.0 °F 30.0 in SE 4 mph 7 mph 95% 0.020 in
03:44 42.0 °F 40.0 °F 30.0 in SE 1 mph 4 mph 95% 0.020 in
03:49 42.0 °F 40.0 °F 30.0 in SE 4 mph 5 mph 95% 0.010 in
03:54 42.0 °F 41.0 °F 30.0 in SE 2 mph 6 mph 95% 0.000 in
03:59 42.0 °F 41.0 °F 30.0 in SE 2 mph 6 mph 96% 0.000 in
04:04 42.0 °F 41.0 °F 30.0 in ESE 6 mph 9 mph 95% 0.010 in
04:09 42.0 °F 41.0 °F 30.0 in SE 4 mph 6 mph 95% 0.010 in
04:14 42.0 °F 41.0 °F 30.0 in SE 5 mph 6 mph 95% 0.010 in
04:19 42.0 °F 41.0 °F 30.0 in ESE 2 mph 4 mph 95% 0.010 in
04:24 42.0 °F 41.0 °F 30.0 in WSW 4 mph 6 mph 95% 0.010 in
04:29 42.0 °F 41.0 °F 30.0 in WSW 2 mph 2 mph 95% 0.020 in
04:34 42.0 °F 41.0 °F 30.0 in SSW 3 mph 4 mph 95% 0.020 in
04:39 42.0 °F 41.0 °F 30.0 in SE 4 mph 7 mph 95% 0.020 in
04:44 42.0 °F 41.0 °F 30.0 in SE 4 mph 5 mph 96% 0.030 in
04:49 42.0 °F 41.0 °F 30.0 in SE 2 mph 5 mph 96% 0.030 in
04:54 42.0 °F 41.0 °F 30.0 in SE 5 mph 5 mph 95% 0.030 in
04:59 42.0 °F 41.0 °F 30.0 in SE 1 mph 5 mph 95% 0.030 in
05:04 42.0 °F 41.0 °F 30.0 in Calm   2 mph 95% 0.030 in
05:09 42.0 °F 41.0 °F 30.0 in SE 2 mph 2 mph 95% 0.030 in
05:14 42.0 °F 41.0 °F 30.0 in Calm   2 mph 95% 0.030 in
05:19 42.0 °F 41.0 °F 30.0 in Calm     95% 0.040 in
05:24 42.0 °F 41.0 °F 30.0 in Calm     96% 0.040 in
05:29 42.0 °F 41.0 °F 30.0 in SE 2 mph 2 mph 96% 0.040 in
05:34 42.0 °F 41.0 °F 30.0 in Calm   1 mph 96% 0.040 in
05:39 42.0 °F 41.0 °F 30.0 in SSE 2 mph 4 mph 96% 0.040 in
05:44 42.0 °F 41.0 °F 30.0 in SE 2 mph 4 mph 96% 0.040 in
05:49 42.0 °F 41.0 °F 30.0 in Calm   4 mph 96% 0.050 in
05:54 42.0 °F 41.0 °F 30.0 in Calm     96% 0.070 in
05:59 42.0 °F 41.0 °F 30.0 in SE 2 mph 2 mph 96% 0.070 in
06:04 42.0 °F 41.0 °F 30.0 in SSW 3 mph 5 mph 96% 0.070 in
06:09 42.0 °F 41.0 °F 30.0 in SW 2 mph 3 mph 96% 0.060 in
06:14 42.0 °F 41.0 °F 30.0 in Calm   1 mph 96% 0.070 in
06:19 42.0 °F 41.0 °F 30.0 in South 4 mph 4 mph 96% 0.070 in
06:24 42.0 °F 41.0 °F 30.0 in Calm     96% 0.070 in
06:29 42.0 °F 41.0 °F 30.0 in SSE 1 mph 2 mph 96% 0.080 in
06:34 42.0 °F 41.0 °F 30.0 in SSE 1 mph 2 mph 96% 0.080 in
06:39 42.0 °F 42.0 °F 30.0 in SSE 2 mph 4 mph 97% 0.080 in
06:44 42.0 °F 42.0 °F 30.0 in SSE 2 mph 5 mph 97% 0.080 in
06:49 43.0 °F 42.0 °F 30.0 in SE 2 mph 4 mph 97% 0.070 in
06:54 43.0 °F 42.0 °F 30.0 in Calm   2 mph 97% 0.060 in
06:59 43.0 °F 42.0 °F 30.0 in Calm   1 mph 97% 0.040 in
07:04 43.0 °F 42.0 °F 30.0 in SE 4 mph 4 mph 97% 0.040 in
07:09 43.0 °F 42.0 °F 30.0 in SE 2 mph 4 mph 96% 0.050 in
07:14 43.0 °F 42.0 °F 30.0 in SE 2 mph 2 mph 96% 0.050 in
07:19 43.0 °F 42.0 °F 30.0 in SE 1 mph 2 mph 96% 0.040 in
07:24 43.0 °F 42.0 °F 30.0 in ESE 5 mph 5 mph 97% 0.030 in
07:29 43.0 °F 42.0 °F 30.0 in ESE 2 mph 2 mph 96% 0.020 in
07:34 43.0 °F 42.0 °F 30.0 in ESE 2 mph 4 mph 96% 0.020 in
07:39 43.0 °F 42.0 °F 30.0 in ESE 1 mph 2 mph 96% 0.010 in
07:44 43.0 °F 42.0 °F 30.0 in ESE 2 mph 2 mph 96% 0.010 in
07:49 43.0 °F 42.0 °F 30.0 in ESE 2 mph 2 mph 96% 0.010 in
07:54 43.0 °F 42.0 °F 30.0 in Calm     96% 0.010 in
07:59 43.0 °F 42.0 °F 30.0 in ESE 1 mph 4 mph 96% 0.010 in
08:04 43.0 °F 42.0 °F 30.0 in Calm   4 mph 96% 0.010 in
08:09 43.0 °F 42.0 °F 30.0 in ESE 2 mph 2 mph 96% 0.000 in
08:14 43.0 °F 42.0 °F 30.0 in Calm   2 mph 96% 0.000 in
08:19 43.0 °F 42.0 °F 30.0 in Calm   1 mph 96% 0.000 in
08:24 43.0 °F 42.0 °F 30.0 in SE 4 mph 5 mph 96% 0.000 in
08:29 44.0 °F 42.0 °F 30.0 in SE 2 mph 4 mph 96% 0.000 in
08:34 44.0 °F 42.0 °F 30.0 in ESE 2 mph 5 mph 96% 0.000 in
08:39 44.0 °F 42.0 °F 30.0 in Calm     96% 0.000 in
08:44 44.0 °F 43.0 °F 30.0 in Calm     96% 0.000 in
08:49 44.0 °F 43.0 °F 30.0 in Calm     96% 0.000 in
08:54 44.0 °F 42.0 °F 30.0 in ESE 1 mph 2 mph 96% 0.000 in
08:59 44.0 °F 42.0 °F 30.0 in Calm     96% 0.000 in
09:04 44.0 °F 42.0 °F 30.0 in SE 4 mph 5 mph 96% 0.000 in
09:09 44.0 °F 42.0 °F 30.0 in SE 4 mph 5 mph 96% 0.000 in
09:14 44.0 °F 42.0 °F 30.0 in East 2 mph 4 mph 96% 0.000 in
09:19 44.0 °F 43.0 °F 30.0 in East 2 mph 3 mph 96% 0.000 in
09:24 44.0 °F 43.0 °F 30.0 in Calm     96% 0.000 in
09:29 44.0 °F 43.0 °F 30.0 in Calm   4 mph 96% 0.000 in
09:34 44.0 °F 43.0 °F 30.0 in Calm   4 mph 96% 0.000 in
09:39 44.0 °F 43.0 °F 30.0 in Calm   1 mph 96% 0.000 in
09:44 44.0 °F 43.0 °F 30.0 in ESE 1 mph 4 mph 96% 0.000 in
09:49 44.0 °F 43.0 °F 30.0 in ESE 1 mph 2 mph 96% 0.000 in
09:54 44.0 °F 43.0 °F 30.0 in ESE 2 mph 4 mph 96% 0.000 in
09:59 44.0 °F 43.0 °F 30.0 in ESE 1 mph 4 mph 96% 0.000 in
10:04 44.0 °F 43.0 °F 30.0 in ESE 2 mph 4 mph 96% 0.000 in
10:09 44.0 °F 43.0 °F 30.0 in SE 2 mph 4 mph 96% 0.000 in
10:14 44.0 °F 43.0 °F 30.0 in SE 1 mph 1 mph 96% 0.000 in
10:19 44.0 °F 43.0 °F 30.0 in SE 6 mph 6 mph 96% 0.000 in
10:24 44.0 °F 43.0 °F 30.0 in SE 5 mph 6 mph 96% 0.000 in
10:29 44.0 °F 43.0 °F 30.0 in SE 1 mph 2 mph 96% 0.000 in
10:34 45.0 °F 43.0 °F 30.0 in SE 2 mph 4 mph 96% 0.000 in
10:39 45.0 °F 44.0 °F 30.0 in SE 1 mph 1 mph 96% 0.000 in
10:44 45.0 °F 44.0 °F 30.0 in Calm     96% 0.000 in
10:49 45.0 °F 44.0 °F 30.0 in Calm     95% 0.000 in
10:54 45.0 °F 44.0 °F 30.0 in Calm     96% 0.000 in
10:59 45.0 °F 44.0 °F 30.0 in SE 1 mph 1 mph 96% 0.000 in
11:04 45.0 °F 44.0 °F 30.0 in Calm     96% 0.000 in
11:09 45.0 °F 44.0 °F 30.0 in Calm     96% 0.000 in
11:14 45.0 °F 44.0 °F 30.0 in Calm     96% 0.000 in
11:19 45.0 °F 44.0 °F 30.0 in Calm     96% 0.000 in
11:24 45.0 °F 44.0 °F 30.0 in Calm     95% 0.000 in
11:29 45.0 °F 44.0 °F 30.0 in Calm   1 mph 96% 0.000 in
11:34 45.0 °F 44.0 °F 30.0 in Calm     96% 0.000 in
11:39 45.0 °F 44.0 °F 30.0 in SE 1 mph 1 mph 96% 0.000 in
11:44 45.0 °F 44.0 °F 30.0 in Calm   2 mph 96% 0.000 in
11:49 45.0 °F 45.0 °F 30.0 in Calm     97% 0.000 in
11:54 46.0 °F 45.0 °F 30.0 in SE 1 mph 1 mph 97% 0.030 in
11:59 46.0 °F 45.0 °F 30.0 in SE 1 mph 4 mph 97% 0.030 in
12:04 46.0 °F 45.0 °F 30.0 in SE 1 mph 1 mph 97% 0.040 in
12:09 46.0 °F 45.0 °F 30.0 in SE 1 mph 2 mph 97% 0.050 in
12:14 46.0 °F 45.0 °F 30.0 in Calm     97% 0.050 in
12:19 46.0 °F 45.0 °F 30.0 in Calm   1 mph 97% 0.060 in
12:24 46.0 °F 45.0 °F 30.0 in Calm   1 mph 97% 0.060 in
12:29 46.0 °F 46.0 °F 30.0 in Calm     98% 0.080 in
12:34 47.0 °F 46.0 °F 30.0 in Calm   1 mph 98% 0.080 in
12:39 47.0 °F 46.0 °F 30.0 in Calm     98% 0.080 in
12:44 47.0 °F 46.0 °F 30.0 in Calm     98% 0.080 in
12:49 47.0 °F 46.0 °F 30.0 in Calm     98% 0.080 in
12:54 47.0 °F 46.0 °F 30.0 in Calm     98% 0.070 in
12:59 47.0 °F 46.0 °F 30.0 in Calm     98% 0.050 in
13:04 47.0 °F 46.0 °F 30.0 in Calm     98% 0.050 in
13:09 47.0 °F 46.0 °F 30.0 in Calm     98% 0.040 in
13:14 47.0 °F 46.0 °F 30.0 in Calm   1 mph 98% 0.030 in
13:19 47.0 °F 46.0 °F 30.0 in Calm   1 mph 97% 0.030 in
13:24 47.0 °F 46.0 °F 30.0 in SE 1 mph 1 mph 97% 0.020 in
13:29 47.0 °F 46.0 °F 30.0 in SE 1 mph 2 mph 97% 0.010 in
13:34 47.0 °F 46.0 °F 30.0 in Calm   1 mph 97% 0.000 in
13:39 47.0 °F 46.0 °F 30.0 in Calm     97% 0.000 in
13:44 47.0 °F 47.0 °F 30.0 in Calm     98% 0.000 in
13:49 48.0 °F 47.0 °F 30.0 in Calm     98% 0.000 in
13:54 48.0 °F 47.0 °F 30.0 in SE 1 mph 1 mph 97% 0.000 in
13:59 48.0 °F 47.0 °F 30.0 in SE 1 mph 2 mph 97% 0.000 in
14:04 48.0 °F 47.0 °F 30.0 in SE 1 mph 1 mph 97% 0.000 in
14:09 48.0 °F 47.0 °F 30.0 in Calm     97% 0.000 in
14:14 48.0 °F 47.0 °F 30.0 in Calm     97% 0.000 in
14:19 48.0 °F 47.0 °F 30.0 in ESE 4 mph 5 mph 97% 0.000 in
14:24 48.0 °F 47.0 °F 30.0 in East 2 mph 3 mph 97% 0.000 in
14:29 48.0 °F 47.0 °F 30.0 in East 2 mph 2 mph 97% 0.000 in
14:34 48.0 °F 47.0 °F 30.0 in SW 2 mph 4 mph 97% 0.000 in
14:39 48.0 °F 47.0 °F 30.0 in Calm   4 mph 97% 0.000 in
14:44 48.0 °F 47.0 °F 30.0 in Calm   1 mph 97% 0.000 in
14:49 47.0 °F 47.0 °F 30.0 in Calm     97% 0.000 in
14:54 47.0 °F 46.0 °F 30.0 in Calm   1 mph 97% 0.000 in
14:59 47.0 °F 46.0 °F 30.0 in Calm     97% 0.000 in
15:04 47.0 °F 46.0 °F 30.0 in Calm   1 mph 97% 0.010 in
15:09 47.0 °F 46.0 °F 30.0 in NNW 1 mph 1 mph 97% 0.010 in
15:14 47.0 °F 46.0 °F 30.0 in ENE 2 mph 3 mph 97% 0.010 in
15:19 47.0 °F 46.0 °F 30.0 in Calm   3 mph 97% 0.010 in
15:24 47.0 °F 46.0 °F 30.0 in Calm   1 mph 97% 0.010 in
15:29 47.0 °F 46.0 °F 30.0 in Calm     97% 0.010 in
15:34 47.0 °F 46.0 °F 30.0 in Calm   1 mph 97% 0.010 in
15:39 47.0 °F 46.0 °F 30.0 in Calm     97% 0.010 in
15:44 47.0 °F 46.0 °F 30.0 in Calm     97% 0.010 in
15:49 47.0 °F 46.0 °F 30.0 in Calm     97% 0.010 in
15:54 47.0 °F 46.0 °F 30.0 in Calm     97% 0.010 in
15:59 47.0 °F 46.0 °F 30.0 in Calm     97% 0.010 in
16:04 47.0 °F 46.0 °F 30.0 in Calm     97% 0.010 in
16:09 47.0 °F 46.0 °F 30.0 in Calm   1 mph 97% 0.000 in
16:14 47.0 °F 46.0 °F 30.0 in Calm   1 mph 96% 0.000 in
16:19 47.0 °F 46.0 °F 30.0 in ENE 1 mph 1 mph 96% 0.000 in
16:24 47.0 °F 46.0 °F 30.0 in ENE 1 mph 2 mph 96% 0.000 in
16:29 47.0 °F 46.0 °F 30.0 in Calm     96% 0.000 in
16:34 47.0 °F 46.0 °F 30.0 in Calm     96% 0.000 in
16:39 47.0 °F 46.0 °F 30.0 in Calm     96% 0.000 in
16:44 47.0 °F 46.0 °F 30.0 in Calm   1 mph 96% 0.000 in
16:49 47.0 °F 46.0 °F 30.0 in Calm     96% 0.000 in
16:54 46.0 °F 45.0 °F 30.0 in Calm     96% 0.000 in
16:59 46.0 °F 45.0 °F 30.0 in Calm     96% 0.000 in
17:04 46.0 °F 45.0 °F 30.0 in Calm     96% 0.000 in
17:09 46.0 °F 45.0 °F 30.0 in Calm     96% 0.000 in
17:14 46.0 °F 45.0 °F 30.0 in Calm     96% 0.000 in
17:19 46.0 °F 45.0 °F 30.0 in Calm     96% 0.000 in
17:24 46.0 °F 45.0 °F 30.0 in Calm     96% 0.000 in
17:29 46.0 °F 45.0 °F 30.0 in Calm     96% 0.000 in
17:34 46.0 °F 45.0 °F 30.0 in Calm     96% 0.000 in
17:39 46.0 °F 45.0 °F 30.0 in Calm     96% 0.000 in
17:44 46.0 °F 44.0 °F 30.0 in Calm     96% 0.000 in
17:49 45.0 °F 44.0 °F 30.0 in Calm     96% 0.000 in
17:54 45.0 °F 44.0 °F 30.0 in Calm     96% 0.000 in
17:59 45.0 °F 44.0 °F 30.0 in Calm     96% 0.000 in
18:04 45.0 °F 44.0 °F 30.0 in Calm     96% 0.000 in
18:09 44.0 °F 43.0 °F 30.0 in Calm     96% 0.000 in
18:14 44.0 °F 43.0 °F 30.0 in Calm     95% 0.000 in
18:19 44.0 °F 43.0 °F 30.0 in Calm     95% 0.000 in
18:24 44.0 °F 42.0 °F 30.0 in Calm     95% 0.000 in
18:29 43.0 °F 42.0 °F 30.0 in Calm     96% 0.000 in
18:34 43.0 °F 42.0 °F 30.0 in Calm     95% 0.000 in
18:39 43.0 °F 42.0 °F 30.0 in Calm     95% 0.000 in
18:44 42.0 °F 41.0 °F 30.0 in Calm     95% 0.000 in
18:49 42.0 °F 41.0 °F 30.0 in Calm     95% 0.000 in
18:54 42.0 °F 41.0 °F 30.0 in Calm     95% 0.000 in
18:59 42.0 °F 41.0 °F 30.0 in Calm     96% 0.000 in
19:04 41.0 °F 40.0 °F 30.0 in Calm     96% 0.000 in
19:09 41.0 °F 40.0 °F 30.0 in Calm     96% 0.000 in
19:14 41.0 °F 40.0 °F 30.0 in Calm     96% 0.000 in
19:19 41.0 °F 39.0 °F 30.0 in Calm     96% 0.000 in
19:24 40.0 °F 39.0 °F 30.0 in Calm     96% 0.000 in
19:29 40.0 °F 39.0 °F 30.0 in Calm     96% 0.000 in
19:34 40.0 °F 39.0 °F 30.0 in Calm     97% 0.000 in
19:39 40.0 °F 39.0 °F 30.0 in Calm     97% 0.000 in
19:44 40.0 °F 39.0 °F 30.0 in Calm     97% 0.000 in
19:49 40.0 °F 39.0 °F 30.0 in Calm     97% 0.000 in
19:54 40.0 °F 39.0 °F 30.0 in Calm     98% 0.000 in
19:59 40.0 °F 40.0 °F 30.0 in Calm     98% 0.000 in
20:04 40.0 °F 40.0 °F 30.0 in Calm     100% 0.000 in
20:09 40.0 °F 40.0 °F 30.0 in Calm     100% 0.000 in
20:14 40.0 °F 40.0 °F 30.0 in Calm     100% 0.000 in
20:19 40.0 °F 40.0 °F 30.0 in Calm     98% 0.000 in
20:24 40.0 °F 40.0 °F 30.0 in Calm     98% 0.000 in
20:29 40.0 °F 40.0 °F 30.0 in Calm     98% 0.000 in
20:34 40.0 °F 40.0 °F 30.0 in Calm     98% 0.000 in
20:39 41.0 °F 40.0 °F 30.0 in Calm     98% 0.000 in
20:44 41.0 °F 40.0 °F 30.0 in Calm     98% 0.000 in
20:49 41.0 °F 40.0 °F 30.0 in Calm     98% 0.000 in
20:54 41.0 °F 40.0 °F 30.0 in Calm     98% 0.000 in
20:59 41.0 °F 40.0 °F 30.0 in Calm     98% 0.000 in
21:04 41.0 °F 40.0 °F 30.0 in Calm     98% 0.000 in
21:09 41.0 °F 40.0 °F 30.0 in Calm     98% 0.000 in
21:14 41.0 °F 40.0 °F 30.0 in Calm     98% 0.000 in
21:19 41.0 °F 40.0 °F 30.0 in Calm     98% 0.000 in
21:24 41.0 °F 40.0 °F 30.0 in Calm     98% 0.000 in
21:29 41.0 °F 40.0 °F 30.0 in Calm     98% 0.000 in
21:34 41.0 °F 40.0 °F 30.0 in Calm     98% 0.000 in
21:39 41.0 °F 40.0 °F 30.0 in Calm     98% 0.000 in
21:44 41.0 °F 40.0 °F 30.0 in Calm     98% 0.000 in
21:49 41.0 °F 40.0 °F 30.0 in Calm     98% 0.000 in
21:54 41.0 °F 40.0 °F 30.0 in Calm     98% 0.000 in
21:59 41.0 °F 40.0 °F 30.0 in Calm     98% 0.000 in
22:04 40.0 °F 40.0 °F 30.0 in Calm     98% 0.000 in
22:09 40.0 °F 40.0 °F 30.0 in Calm     98% 0.000 in
22:14 40.0 °F 40.0 °F 30.0 in Calm     98% 0.000 in
22:19 40.0 °F 40.0 °F 30.0 in Calm     98% 0.000 in
22:24 40.0 °F 40.0 °F 30.0 in Calm     98% 0.000 in
22:29 41.0 °F 40.0 °F 30.0 in ENE 1 mph 1 mph 98% 0.000 in
22:34 41.0 °F 40.0 °F 30.0 in ENE 2 mph 2 mph 98% 0.000 in
22:39 41.0 °F 40.0 °F 30.0 in Calm   2 mph 98% 0.000 in
22:44 41.0 °F 41.0 °F 30.0 in ENE 1 mph 2 mph 98% 0.000 in
22:49 41.0 °F 41.0 °F 30.0 in Calm     98% 0.000 in
22:54 41.0 °F 41.0 °F 30.0 in SE 2 mph 7 mph 98% 0.000 in
22:59 41.0 °F 41.0 °F 30.0 in ESE 2 mph 7 mph 98% 0.000 in
23:04 41.0 °F 41.0 °F 30.0 in Calm   4 mph 98% 0.000 in
23:09 41.0 °F 41.0 °F 30.0 in East 1 mph 1 mph 98% 0.000 in
23:14 41.0 °F 41.0 °F 30.0 in Calm     98% 0.000 in
23:19 41.0 °F 41.0 °F 30.0 in Calm     98% 0.000 in
23:24 41.0 °F 41.0 °F 30.0 in Calm   2 mph 98% 0.000 in
23:29 41.0 °F 41.0 °F 30.0 in Calm     97% 0.000 in
23:34 41.0 °F 41.0 °F 30.0 in Calm     97% 0.000 in
23:39 41.0 °F 41.0 °F 30.0 in Calm     97% 0.000 in
23:44 41.0 °F 41.0 °F 30.0 in Calm     97% 0.000 in
23:49 41.0 °F 41.0 °F 30.0 in Calm     97% 0.000 in
23:54 41.0 °F 41.0 °F 30.0 in Calm     97% 0.000 in
23:59 41.0 °F 40.0 °F 30.0 in Calm     97% 0.000 in
East Ellijay Weather
Compliments of Weather Underground - 2 mb